Location: Cerda�ola
(41.4919°N, 2.1403°E)
Time: 21:07:50
(UTC+00:00)

Resurs 01 Rocket - Pass Details

Date: 29 March 2020
Orbit: 635 x 644 km, 98.0° (Epoch: 29 May)

Event Time Altitude Azimuth Distance (km) Brightness Sun altitude
Exits shadow 19:53:08 38° 88° (E) 973 2.1 -18.8°
Maximum altitude 19:53:38 39° 71° (ENE) 949 2.1 -18.9°
Drops below altitude 10° 19:57:44 10° 3° (N) 2,030 4.5 -19.6°
Sets 20:00:03 0° 355° (N) 2,944 5.4 -19.9°
